Location: Saluda
(35.2377°N, 82.3468°W)
Time: 17:54:42
(UTC+00:00)

Transit 2A - Pass Details

Date: 11 October 2022
Orbit: 598 x 959 km, 66.7° (Epoch: 06 December)

Event Time Altitude Azimuth Distance (km) Brightness Sun altitude
Rises 13:12:55 0° 304° (NW) 3,115 8.6 18.9°
Reaches altitude 10° 13:17:21 10° 267° (W) 2,293 8.0 19.7°
Maximum altitude 13:18:28 11° 255° (WSW) 2,272 8.1 19.9°
Drops below altitude 10° 13:19:36 10° 242° (WSW) 2,343 8.2 20.1°
Sets 13:24:24 0° 206° (SSW) 3,378 9.3 21.0°
